N1JFY Weather Reports


time (UTC)temp
F
wind
direction
speed
knots
gust
knots
rain 1hr
in
rain 24hr
in
rain mn
in
humidity
%
barometer
mb
20260509161547 53 225 8.7 14.8 0.00 0.00 0.00 42 1013.0
20260509160049 52 261 1.7 15.6 0.00 0.00 0.00 45 1013.0
20260509154547 53 232 7.0 13.0 0.00 0.00 0.00 42 1013.0
20260509153044 52 211 6.1 13.0 0.00 0.00 0.00 43 1013.0
20260509151547 52 207 2.6 10.4 0.00 0.00 0.00 44 1013.1
20260509150044 52 205 6.1 12.2 0.00 0.00 0.00 41 1013.1
20260509144544 52 193 4.3 9.6 0.00 0.00 0.00 48 1013.1
20260509143048 52 153 6.1 10.4 0.00 0.00 0.00 48 1013.1
20260509141543 52 215 0.9 6.1 0.00 0.00 0.00 51 1013.2
20260509140046 51 192 2.6 9.6 0.00 0.00 0.00 52 1013.2
20260509134536 51 189 3.5 8.7 0.00 0.00 0.00 50 1013.4
20260509133033 50 202 0.9 9.6 0.00 0.00 0.00 57 1013.2
20260509131537 50 216 0.9 7.0 0.00 0.00 0.00 52 1013.2
20260509130031 49 236 2.6 9.6 0.00 0.00 0.00 54 1013.0
20260509124534 49 217 4.3 8.7 0.00 0.00 0.00 53 1012.9
20260509123035 48 151 0.0 7.8 0.00 0.00 0.00 58 1012.8
20260509121522 48 184 0.0 7.0 0.00 0.00 0.00 54 1012.7
20260509120018 47 244 0.9 8.7 0.00 0.00 0.00 59 1012.7
20260509114517 46 199 0.9 6.1 0.00 0.00 0.00 61 1012.7
20260509113012 45 211 2.6 7.0 0.00 0.00 0.00 63 1012.6
20260509111507 42 215 0.0 0.0 0.00 0.00 0.00 74 1012.5
20260509110008 42 216 0.0 5.2 0.00 0.00 0.00 71 1012.4
20260509104511 40 229 0.0 0.9 0.00 0.00 0.00 72 1012.3
20260509103002 40 243 0.0 5.2 0.00 0.00 0.00 75 1012.1
20260509101502 39 246 2.6 7.0 0.00 0.00 0.00 75 1012.0
20260509100114 39 222 2.6 7.8 0.00 0.00 0.00 74 1011.7
20260509094604 38 219 0.9 6.1 0.00 0.00 0.00 76 1011.6
20260509093108 37 236 3.5 7.0 0.00 0.00 0.00 79 1011.4
20260509091605 36 240 4.3 8.7 0.00 0.00 0.00 82 1011.2
20260509090155 35 205 4.3 8.7 0.00 0.00 0.00 84 1011.2
20260509084550 36 202 6.1 8.7 0.00 0.00 0.00 83 1011.2
20260509083048 36 210 2.6 5.2 0.00 0.00 0.00 82 1011.1
20260509081556 32 219 0.0 0.0 0.00 0.00 0.00 90 1010.9
20260509080049 32 204 0.0 0.0 0.00 0.00 0.00 88 1010.7
20260509074543 32 261 0.0 0.0 0.00 0.00 0.00 88 1010.5
20260509073045 32 282 0.0 0.0 0.00 0.00 0.00 86 1010.5
20260509071536 34 284 0.0 0.0 0.00 0.00 0.00 81 1010.4
20260509070033 39 284 0.0 5.2 0.00 0.00 0.00 71 1010.4
20260509064532 40 277 3.5 7.8 0.00 0.00 0.00 71 1010.3
20260509063034 41 280 2.6 6.1 0.00 0.00 0.00 71 1010.2
20260509061538 40 267 3.5 8.7 0.00 0.00 0.00 72 1010.0
20260509060024 38 277 2.6 6.1 0.00 0.00 0.00 78 1010.0
20260509054521 39 254 1.7 5.2 0.00 0.00 0.00 76 1010.0
20260509053030 42 247 2.6 7.0 0.00 0.00 0.00 70 1009.8
20260509051517 42 290 6.1 13.0 0.00 0.00 0.00 69 1009.7
20260509050013 42 263 7.8 13.0 0.00 0.00 0.00 69 1009.5
20260509044511 42 360 7.0 11.3 0.00 0.00 0.00 70 1009.3
20260509043009 42 360 6.1 11.3 0.00 0.00 0.00 69 1009.1
20260509041507 42 290 7.0 10.4 0.00 0.00 0.00 69 1008.9
20260509040002 42 360 5.2 11.3 0.00 0.00 0.00 68 1008.8
20260509034604 42 360 7.8 13.9 0.00 0.00 0.00 68 1008.7
20260509033059 43 360 7.0 14.8 0.00 0.00 0.00 68 1008.5
20260509031602 43 288 7.0 13.0 0.00 0.00 0.00 66 1008.5
20260509030058 43 360 7.8 13.0 0.00 0.00 0.00 66 1008.5
20260509024557 43 250 6.1 9.6 0.00 0.00 0.00 67 1008.4
20260509023057 42 360 4.3 7.8 0.00 0.00 0.00 72 1008.4
20260509021555 41 267 3.5 8.7 0.00 0.00 0.00 74 1008.3
20260509020056 40 281 0.0 0.0 0.00 0.00 0.00 80 1008.2
20260509014552 40 280 0.0 0.0 0.00 0.00 0.00 83 1008.0
20260509013051 40 256 0.0 0.0 0.00 0.00 0.00 82 1007.9
20260509011550 41 257 0.0 0.0 0.00 0.00 0.00 82 1007.8
20260509010048 41 252 0.0 0.0 0.00 0.00 0.00 83 1007.6
20260509004548 41 246 0.0 0.0 0.00 0.00 0.00 84 1007.5
20260509003045 41 246 0.0 0.0 0.00 0.00 0.00 84 1007.3
20260509001544 42 247 0.0 0.0 0.00 0.00 0.00 82 1007.2
20260509000044 42 360 0.0 0.0 0.00 0.00 0.00 80 1007.2
20260508234546 42 35 0.0 0.0 0.00 0.00 0.00 81 1007.0
20260508233040 42 37 0.0 0.0 0.00 0.00 0.00 79 1006.6
20260508231545 43 37 0.0 0.0 0.00 0.00 0.00 79 1006.2
20260508230046 43 37 0.0 0.0 0.00 0.00 0.00 76 1006.2
20260508224536 43 37 0.0 0.0 0.00 0.00 0.00 77 1006.2
20260508223042 44 40 0.0 6.1 0.00 0.00 0.00 78 1006.2
20260508221535 44 360 0.0 0.9 0.00 0.00 0.00 74 1006.0
20260508220038 44 360 0.0 7.0 0.00 0.00 0.00 76 1005.9
20260508214531 43 5 5.2 8.7 0.00 0.00 0.00 76 1005.8
20260508213030 44 323 9.6 18.2 0.00 0.00 0.00 69 1005.8
20260508211530 46 290 14.8 23.5 0.00 0.00 0.00 65 1005.4
20260508210025 49 360 7.0 12.2 0.00 0.00 0.00 55 1005.0
20260508204524 49 360 7.8 14.8 0.00 0.00 0.00 54 1004.8
20260508203025 49 360 8.7 12.2 0.00 0.00 0.00 55 1004.5
20260508201522 48 360 4.3 7.8 0.00 0.00 0.00 60 1004.5
20260508200020 47 328 4.3 15.6 0.00 0.00 0.00 60 1004.6
20260508194521 45 234 4.3 15.6 0.00 0.00 0.00 66 1004.7
20260508193024 45 360 9.6 22.6 0.00 0.00 0.00 67 1004.8
20260508191532 48 360 12.2 17.4 0.00 0.00 0.00 62 1004.6
20260508190026 49 360 9.6 15.6 0.00 0.00 0.00 58 1004.3
20260508184520 48 360 10.4 14.8 0.00 0.00 0.00 62 1004.3
20260508183015 47 342 8.7 16.5 0.00 0.00 0.00 64 1004.3
20260508181514 45 360 12.2 19.1 0.00 0.00 0.00 71 1004.2
20260508180014 44 321 12.2 20.9 0.00 0.00 0.00 73 1004.2
20260508174514 45 285 13.9 20.9 0.00 0.00 0.00 71 1004.1
20260508173013 48 360 12.2 20.0 0.00 0.00 0.00 57 1003.9
20260508171512 49 360 2.6 11.3 0.00 0.00 0.00 48 1003.5
20260508170013 50 360 0.9 10.4 0.00 0.00 0.00 52 1003.4
20260508164513 48 360 0.0 10.4 0.00 0.01 0.00 55 1003.7
20260508163008 49 360 5.2 11.3 0.00 0.01 0.00 58 1003.7